Regional Weather Roundup
Issued by NWS

Home | Current Version | Previous Version | Text Only | Print | Product List | Glossary On
Versions: 1 2 3 4 5 6 7 8 9 10 11 12 13 14 15 16 17 18 19 20 21 22 23 24 25 26 27 28 29 30 31 32 33 34 35 36 37 38 39 40 41 42 43 44 45 46 47 48 49 50
000
ASUS44 KLIX 310110
RWRLA
LOUISIANA WEATHER ROUNDUP
NATIONAL WEATHER SERVICE NEW ORLEANS LA
800 PM CDT WED JUL 30 2014

NOTE: "FAIR" INDICATES FEW OR NO CLOUDS BELOW 12,000 FEET WITH NO
      SIGNIFICANT WEATHER AND/OR OBSTRUCTIONS TO VISIBILITY.
      SKY/WX - SKY CONDITION AND SIGNIFICANT WEATHER.
      TMP - AIR TEMPERATURE.    DP   - DEWPOINT TEMPERATURE.
      RH  - RELATIVE HUMIDITY.  PRES - PRESSURE.
      HX  - HEAT INDEX.         WCI  - WIND CHILL INDEX.

*  THESE STATIONS ARE NOT NWS OR FAA STATIONS AND ARE NOT UNDER
   NWS QUALITY CONTROL.

LAZ040-048-061>063-065-066-069-310200-
SOUTHEAST LOUISIANA

CITY           SKY/WX    TMP DP  RH WIND       PRES   REMARKS
N.O. AUDUBON     N/A     84  61  45 MISG        N/A
N.O. INTL ARPT PTCLDY    81  61  50 N8        30.01R
N.O. LAKEFRONT CLEAR     83  61  47 N10       30.01R
N.O. DOWNTOWN* FAIR      84  59  42 N5        30.01S
SLIDELL        CLEAR     78  63  59 CALM      30.01R
BATON ROUGE    CLEAR     80  64  58 NE3       30.01S
BOOTHVILLE     CLEAR     81  63  54 CALM      30.01R
BELLE CHASSE   PTCLDY    80  61  52 N5        30.00R
BOGALUSA*      FAIR      78  67  69 CALM      30.03S
GALLIANO*      NOT AVBL
NEW ROADS*     FAIR      79  67  68 NW6       30.01S
GONZALES*      FAIR      80  69  68 CALM      30.00S
HAMMOND*       CLEAR     81  59  47 CALM      30.03S
HOUMA*         CLEAR     81  65  59 E6        30.00R
PORT FOURCHON* CLOUDY    82  70  65 E6        30.02R

$$

LAZ041-044-053-054-310200-
SOUTHWEST LOUISIANA

CITY           SKY/WX    TMP DP  RH WIND       PRES   REMARKS
LAKE CHARLES   CLEAR     85  68  56 E6        29.98S
LAFAYETTE      CLEAR     81  66  60 NE5       30.00S
PATTERSON      CLEAR     81  66  61 N5        30.04S
SALT POINT       N/A     85  70  60 CALM      29.99R
NEW IBERIA     CLEAR     82  65  56 MISG      30.01R
CHENAULT AIRPK CLEAR     84  68  58 E3        30.00R

$$

LAZ027-028-310200-
CENTRAL LOUISIANA

CITY           SKY/WX    TMP DP  RH WIND       PRES   REMARKS
FORT POLK      CLEAR     82  62  50 E5        30.01R
ALEXANDRIA INT CLEAR     82  66  58 NE6       30.00R
ALEXANDRIA     CLEAR     78  70  76 CALM      30.02R

$$

LAZ001-002-310200-
NORTHWEST LOUISIANA

CITY           SKY/WX    TMP DP  RH WIND       PRES   REMARKS
SHREVEPORT     CLOUDY    80  66  62 E12G17    30.00S
BARKSDALE AFB  MOCLDY    78  68  72 E8        30.01S
DTN SHREVEPORT CLOUDY    78  68  71 E5        30.01S

$$

LAZ014-016-310200-
NORTHEAST LOUISIANA

CITY           SKY/WX    TMP DP  RH WIND       PRES   REMARKS
MONROE         CLOUDY    78  64  61 NE7       30.05R
TALLULAH       MOCLDY    76  64  66 N5        30.04S

$$



USA.gov is the U.S. government's official web portal to all federal, state and local government web resources and services.